KAZSAT-2

Last updated on Tue Oct 08 2024 00:02:39 GMT+0000 (Coordinated Universal Time)

1 37749U 11035B 24281.39215906 -.00000187 00000+0 00000+0 0 9997 2 37749 0.0156 20.4488 0000702 229.6831 354.1071 1.00272778 48377
UTC large
Height (km)
Speed (km/s)
/
Latitude / Longitude
Inclination (degrees)
Orbital Period (minutes)
Azimuth
Elevation
Range (km)
Doppler Factor

Next 0 passes for location: London (51.5072 / 0.1276)

Sorry there are no passes over London.